DW8022 Weather Reports


Display with metric or nautical units.
time (UTC)temp
F
wind
direction
speed
MPH
gust
MPH
rain 1hr
in
rain 24hr
in
rain mn
in
humidity
%
barometer
mb
20260505013655 80 84 2.0 4.0 0.00 0.00 0.00 65 1016.5
20260505012130 80 123 1.0 3.0 0.00 0.00 0.00 65 1017.0
20260505010629 79 348 1.0 4.0 0.00 0.00 0.00 68 1017.5
20260505005117 77 257 2.0 7.0 0.00 0.00 0.00 69 1017.6
20260505003619 77 265 2.0 6.0 0.00 0.00 0.00 71 1017.8
20260505003526 78 125 2.0 7.0 0.00 0.00 0.00 70 1017.9
20260505000558 76 209 2.0 8.0 0.00 0.00 0.00 74 1018.1
20260504235054 75 255 2.0 6.0 0.00 0.00 0.00 77 1018.1
20260504233559 75 176 2.0 5.0 0.00 0.00 0.00 77 1018.0
20260504232055 74 342 2.0 3.0 0.00 0.00 0.00 81 1018.1
20260504230543 73 282 1.0 2.0 0.00 0.00 0.00 86 1018.2
20260504225028 70 31 0.0 0.0 0.00 0.00 0.00 88 1018.4
20260504224212 69 31 0.0 2.0 0.00 0.00 0.00 90 1018.2
20260504222658 68 306 0.0 0.0 0.00 0.00 0.00 92 1018.2
20260504220518 66 306 0.0 0.0 0.00 0.00 0.00 93 1018.1
20260504220338 65 306 0.0 0.0 0.00 0.00 0.00 94 1018.1
20260504210444 62 306 0.0 0.0 0.00 0.00 0.00 92 1017.9
20260504204944 62 306 0.0 0.0 0.00 0.00 0.00 92 1017.7
20260504204150 62 306 0.0 0.0 0.00 0.00 0.00 92 1017.7
20260504201949 62 306 0.0 0.0 0.00 0.00 0.00 91 1017.6
20260504201825 62 306 0.0 0.0 0.00 0.00 0.00 92 1017.4
20260504193424 62 306 0.0 0.0 0.00 0.00 0.00 92 1017.3
20260504192715 62 306 0.0 0.0 0.00 0.00 0.00 91 1017.0
20260504190355 63 5 0.0 0.0 0.00 0.00 0.00 91 1016.9
20260504184825 63 5 0.0 1.0 0.00 0.00 0.00 91 1017.0
20260504183327 63 5 0.0 0.0 0.00 0.00 0.00 91 1016.9
20260504181829 63 5 0.0 0.0 0.00 0.00 0.00 91 1016.7
20260504180306 63 5 0.0 0.0 0.00 0.00 0.00 91 1016.6
20260504175456 63 5 0.0 0.0 0.00 0.00 0.00 91 1016.6
20260504173304 63 5 0.0 0.0 0.00 0.00 0.00 91 1016.5
20260504170253 64 5 0.0 0.0 0.00 0.01 0.00 91 1016.7
20260504160227 64 266 0.0 0.0 0.00 0.01 0.00 91 1017.0
20260504150219 65 266 0.0 0.0 0.00 0.01 0.00 90 1017.2
20260504140130 66 266 0.0 1.0 0.00 0.01 0.00 90 1017.7
20260504045557 79 46 2.0 7.0 0.00 0.01 0.01 65 1016.8
20260504044040 80 122 2.0 11.0 0.00 0.01 0.01 64 1016.5
20260504042517 80 87 4.0 11.0 0.00 0.01 0.01 64 1016.6
20260504040954 80 77 3.0 8.0 0.00 0.01 0.01 66 1016.6
20260504035440 80 58 2.0 7.0 0.00 0.01 0.01 67 1017.0
20260504033938 81 32 2.0 9.0 0.00 0.01 0.01 66 1016.8
20260504032426 81 158 3.0 10.0 0.00 0.01 0.01 66 1017.0
20260504030924 80 30 2.0 8.0 0.00 0.01 0.01 67 1017.1
20260504025422 80 87 1.0 8.0 0.00 0.01 0.01 67 1017.2
20260504023915 81 57 2.0 9.0 0.00 0.01 0.01 65 1017.5
20260504022357 81 38 3.0 8.0 0.00 0.01 0.01 65 1017.5
20260504020839 80 0 3.0 8.0 0.00 0.01 0.01 65 1017.9
20260504015330 80 188 3.0 11.0 0.00 0.01 0.01 65 1018.1